Lid_Strength_Index
5 4 5 5 4 4 4 4 4 4 4 4 4 4 3 3 3 3 3 3 4 4 4 5 5 4 5 5 6 6 7 7 9 7 7 8 10 10 11 11 10 10 9
7 7 7 7 7 7 7 7 7 7 6 7 6 6 6 6 5 5 5 5 5 6 6 6 6 6 6 6 6 7 7 7 8 9 7 7 11 11 10 11 11 11 10
8 8 8 8 8 8 8 8 8 8 8 8 8 8 8 8 8 8 8 8 7 7 7 7 7 7 8 7 7 7 6 7 7 8 8 7 11 13 13 13 12 12 11
8 9 9 9 9 10 10 10 10 9 9 9 9 10 10 10 9 10 11 10 10 9 8 8 8 8 8 8 8 8 8 8 8 9 9 8 9 14 13 14 13 13 12
9 9 10 10 10 10 10 10 10 11 11 11 11 11 11 11 12 12 11 11 11 10 10 10 9 9 10 9 9 9 9 10 9 10 10 9 9 15 14 12 13 11 12
10 11 11 11 11 11 11 12 12 12 11 12 12 12 12 13 11 11 11 11 11 11 11 11 10 11 11 10 10 9 9 10 11 10 10 10 9 9 10 10 11 13 13
11 12 12 12 13 12 12 13 13 12 12 12 12 12 12 12 11 11 11 12 12 11 11 11 11 11 11 10 10 9 9 8 7 8 10 9 9 8 8 9 11 11 11
13 13 13 13 14 13 13 13 13 13 13 13 13 12 13 12 11 11 11 12 12 11 11 11 11 11 11 11 11 11 10 9 9 8 8 8 8 7 7 8 9 10 10
14 14 14 14 15 14 15 14 14 13 13 13 13 13 13 13 12 11 11 12 12 11 11 11 11 11 9 9 10 11 10 10 8 7 6 6 6 6 6 8 10 12 13
15 15 15 15 16 16 15 15 14 14 14 13 14 13 13 13 11 10 10 11 12 12 11 11 10 10 9 8 10 10 11 10 9 9 9 8 8 8 7 8 9 11 11
17 17 16 16 16 16 15 15 15 15 14 14 14 13 12 12 11 10 10 11 12 12 12 11 11 9 9 9 8 9 9 9 8 9 9 9 9 9 9 8 8 9 10
19 19 19 18 17 16 16 16 14 14 14 14 14 13 12 11 10 9 9 9 10 11 12 11 11 10 9 9 9 8 8 8 9 10 10 10 9 9 9 9 9 9 8
21 21 20 19 17 17 17 16 15 14 13 13 13 13 12 11 10 9 9 9 9 10 10 10 9 9 9 9 9 8 9 9 10 10 10 9 8 9 10 12 12 13 13
22 21 19 19 18 17 16 15 14 14 13 12 12 12 12 11 11 10 9 10 9 9 9 9 8 8 9 9 9 8 8 8 9 9 8 9 10 10 10 11 12 12 14
22 20 19 18 18 17 15 15 14 13 13 13 13 12 12 12 10 9 9 9 9 8 8 8 9 9 10 9 9 8 8 8 8 8 8 9 10 11 11 10 12 12 14
21 19 18 19 17 17 16 16 13 13 12 12 11 11 10 9 9 8 8 8 8 8 8 9 10 9 9 9 9 8 7 7 7 7 8 8 10 11 12 12 11 12 14
23 22 20 20 19 18 17 17 18 15 13 12 11 10 9 9 9 9 8 8 8 8 8 8 9 8 9 9 8 8 8 7 7 8 9 9 10 11 12 12 12 13 14
25 23 22 20 19 19 18 18 18 18 18 16 12 11 10 9 9 9 9 9 9 7 7 8 8 8 8 8 8 8 8 8 8 8 9 9 11 11 11 12 12 12 13
23 21 21 20 19 19 19 18 16 16 16 15 13 11 9 10 10 10 11 13 12 12 11 11 11 11 11 10 9 9 8 9 9 8 9 11 11 10 11 11 11 11 12
22 22 21 20 19 18 17 17 16 16 15 14 13 12 12 13 12 13 14 15 15 14 14 14 14 14 14 13 12 10 10 9 10 10 10 10 10 10 10 11 11 12 12
20 20 20 20 18 17 17 16 16 15 15 14 13 14 12 15 15 15 15 16 16 16 16 16 15 15 16 16 15 13 13 12 13 12 12 11 11 11 11 11 11 11 12
19 19 18 18 17 17 16 16 15 15 15 15 15 15 14 15 16 16 16 16 17 16 16 17 16 16 17 18 18 17 16 16 16 15 13 13 12 13 12 13 13 13 14
19 19 18 18 17 18 17 16 16 16 16 16 16 16 16 16 16 17 17 17 17 17 17 18 18 18 18 18 18 18 18 19 18 17 17 15 14 14 14 14 15 15 15
19 19 19 18 18 19 17 18 17 17 17 17 16 16 17 17 17 17 17 17 17 17 17 18 19 19 19 20 19 19 19 19 19 19 19 18 16 16 17 18 17 18 18
20 20 20 19 19 19 19 18 18 18 17 17 17 17 16 16 17 17 17 17 18 18 18 18 19 19 19 20 20 20 19 19 20 20 20 20 20 20 22 21 22 23 23
21 20 20 20 20 19 20 19 19 18 18 17 17 17 17 17 17 17 17 17 18 18 19 19 19 19 19 20 20 19 19 17 18 19 22 21 23 24 25 27 28 27 27